This is the latest recevied weather packets stored in our database for station/object KB0BS-13. If no packets are shown the sender has not sent any weather packets the latest 10 day(s).
| Time | Temp. | Humidity | Pressure | Rain* | Wind** | Luminosity | Snow |
|---|---|---|---|---|---|---|---|
| 1777889454 | -1.11° C | 99% | 1000.2 hPa | 0 mm | - | 1 W/m² | - |
| 1777889151 | -0.56° C | 99% | 1000.2 hPa | 0 mm | - | 0 W/m² | - |
| 1777888849 | -0.56° C | 99% | 1000.1 hPa | 0 mm | - | 0 W/m² | - |
| 1777888545 | 0° C | 99% | 1000.2 hPa | 0 mm | - | 0 W/m² | - |
| 1777888241 | 0° C | 99% | 1000.2 hPa | 0 mm | - | 0 W/m² | - |
| 1777887938 | 0° C | 99% | 1000.1 hPa | 0 mm | - | 0 W/m² | - |
| 1777887635 | -0.56° C | 99% | 1000.2 hPa | 0 mm | - | 0 W/m² | - |
| 1777887331 | -0.56° C | 99% | 1000.4 hPa | 0 mm | - | 0 W/m² | - |
| 1777887027 | -0.56° C | 99% | 1000.4 hPa | 0 mm | - | 0 W/m² | - |
| 1777886723 | 0° C | 99% | 1000.3 hPa | 0 mm | - | 0 W/m² | - |
| 1777886420 | 0.56° C | 99% | 1000.2 hPa | 0 mm | - | 0 W/m² | - |
| 1777886118 | 1.11° C | 99% | 1000.4 hPa | 0 mm | - | 0 W/m² | - |
| 1777885816 | 2.22° C | 99% | 1000.4 hPa | 0 mm | - | 0 W/m² | - |
| 1777885514 | 1.11° C | 99% | 1000.4 hPa | 0 mm | - | 0 W/m² | - |
| 1777885212 | 1.11° C | 99% | 1000.5 hPa | 0 mm | - | 0 W/m² | - |
| 1777884909 | 0.56° C | 99% | 1000.6 hPa | 0 mm | - | 0 W/m² | - |
| 1777883998 | 1.11° C | 99% | 1001.1 hPa | 0 mm | - | 0 W/m² | - |
| 1777883695 | 0.56° C | 99% | 1001 hPa | 0 mm | - | 0 W/m² | - |
| 1777883391 | 1.11° C | 99% | 1001 hPa | 0 mm | - | 0 W/m² | - |
| 1777883088 | 2.22° C | 99% | 1001.1 hPa | 0 mm | - | 0 W/m² | - |
| 1777882482 | 2.22° C | 99% | 1001.3 hPa | 0 mm | - | 0 W/m² | - |
| 1777882177 | 2.22° C | 99% | 1001.4 hPa | 0 mm | - | 0 W/m² | - |
| 1777881874 | 3.33° C | 99% | 1001.5 hPa | 0 mm | - | 0 W/m² | - |
| 1777881571 | 3.89° C | 99% | 1001.5 hPa | 0 mm | - | 0 W/m² | - |
| 1777881268 | 3.89° C | 99% | 1001.6 hPa | 0 mm | - | 0 W/m² | - |
* Rain latest hour (hover to see other rain measurements)
** Current wind speed in m/s (hover to see current wind gust speed)